GW0290 Weather Reports


time (UTC)temp
C
wind
direction
speed
KPH
gust
KPH
rain 1hr
cm
rain 24hr
cm
rain mn
cm
humidity
%
barometer
mb
20260906123037 22 0 0.0 3.2 0.00 0.05 0.00 96 1013.7
20260906122518 22 0 0.0 3.2 0.00 0.05 0.00 96 1013.6
20260906122021 22 0 0.0 8.0 0.00 0.05 0.00 96 1013.7
20260906121541 22 0 0.0 8.0 0.00 0.05 0.00 97 1013.6
20260906121021 22 346 0.0 6.4 0.00 0.05 0.00 97 1013.6
20260906120522 22 0 0.0 4.8 0.00 0.05 0.00 97 1013.5
20260906120040 22 339 0.0 4.8 0.00 0.05 0.00 97 1013.5
20260906115520 22 319 0.0 4.8 0.00 0.05 0.00 96 1013.5
20260906115020 22 0 0.0 6.4 0.00 0.05 0.00 96 1013.5
20260906114544 22 0 0.0 6.4 0.00 0.05 0.00 96 1013.4
20260906114018 22 0 0.0 4.8 0.00 0.05 0.00 96 1013.2
20260906113518 22 0 0.0 3.2 0.00 0.05 0.00 96 1013.2
20260906113037 22 0 0.0 6.4 0.00 0.05 0.00 97 1013.2
20260906112518 22 0 0.0 6.4 0.00 0.05 0.00 96 1013.1
20260906112018 22 0 0.0 0.0 0.00 0.05 0.00 97 1013.1
20260906111543 22 0 0.0 0.0 0.00 0.05 0.00 96 1013.0
20260906111020 22 0 0.0 0.0 0.00 0.05 0.00 96 1012.9
20260906110518 22 0 0.0 0.0 0.00 0.05 0.00 96 1012.8
20260906110037 22 0 0.0 3.2 0.00 0.05 0.00 96 1012.7
20260906105521 22 0 0.0 3.2 0.00 0.05 0.00 96 1012.8
20260906105022 22 0 0.0 1.6 0.00 0.05 0.00 96 1012.7
20260906104538 22 0 0.0 1.6 0.00 0.05 0.00 96 1012.5
20260906104016 22 0 0.0 3.2 0.00 0.05 0.00 96 1012.5
20260906103516 22 0 0.0 4.8 0.00 0.05 0.00 96 1012.5
20260906103038 22 0 0.0 4.8 0.00 0.05 0.00 96 1012.5
20260906102521 22 100 0.0 3.2 0.00 0.05 0.00 96 1012.5
20260906102020 22 0 0.0 0.0 0.00 0.05 0.00 96 1012.5
20260906101535 22 0 0.0 0.0 0.00 0.05 0.00 96 1012.4
20260906101018 22 0 0.0 0.0 0.00 0.05 0.00 96 1012.3
20260906100521 22 0 0.0 0.0 0.00 0.05 0.00 96 1012.3
20260906100040 22 0 0.0 0.0 0.00 0.05 0.00 96 1012.3
20260906095525 22 0 0.0 0.0 0.00 0.05 0.00 96 1012.1
20260906095018 22 0 0.0 0.0 0.00 0.05 0.00 96 1012.0
20260906094535 22 0 0.0 3.2 0.00 0.05 0.00 96 1011.9
20260906094021 22 0 0.0 3.2 0.00 0.05 0.00 96 1011.9
20260906093517 22 253 0.0 0.0 0.00 0.05 0.00 96 1011.8
20260906093038 22 0 0.0 0.0 0.00 0.05 0.00 96 1011.8
20260906092518 22 0 0.0 0.0 0.00 0.05 0.00 96 1011.9
20260906092020 22 0 0.0 0.0 0.00 0.05 0.00 96 1011.7
20260906091536 22 0 0.0 0.0 0.00 0.05 0.00 96 1011.6
20260906091020 22 0 0.0 0.0 0.00 0.05 0.00 96 1011.6
20260906090521 22 0 0.0 0.0 0.00 0.05 0.00 96 1011.6
20260906090035 22 0 0.0 0.0 0.00 0.05 0.00 96 1011.5
20260906085519 22 0 0.0 0.0 0.00 0.05 0.00 96 1011.6
20260906085020 22 0 0.0 0.0 0.00 0.05 0.00 96 1011.5
20260906084538 21 0 0.0 0.0 0.00 0.05 0.00 96 1011.4
20260906084022 21 0 0.0 1.6 0.00 0.05 0.00 96 1011.5
20260906083516 21 0 0.0 1.6 0.00 0.05 0.00 96 1011.6
20260906083033 21 0 0.0 0.0 0.00 0.05 0.00 95 1011.5
20260906082518 21 0 0.0 0.0 0.00 0.05 0.00 95 1011.3
20260906082019 21 0 0.0 0.0 0.00 0.05 0.00 95 1011.3
20260906081535 21 0 0.0 0.0 0.00 0.05 0.00 95 1011.4
20260906081018 21 0 0.0 0.0 0.00 0.05 0.00 95 1011.3
20260906080520 21 0 0.0 0.0 0.00 0.05 0.00 95 1011.2
20260906080035 21 0 0.0 0.0 0.00 0.05 0.00 95 1011.1
20260906075517 21 0 0.0 0.0 0.00 0.05 0.00 95 1011.1
20260906075017 21 0 0.0 0.0 0.00 0.05 0.00 95 1011.0
20260906074537 21 0 0.0 0.0 0.00 0.05 0.00 95 1011.0
20260906074017 21 0 0.0 0.0 0.00 0.05 0.00 95 1010.8
20260906073517 21 0 0.0 0.0 0.00 0.05 0.00 95 1010.8
20260906073034 21 0 0.0 0.0 0.00 0.05 0.00 95 1010.9
20260906072520 21 0 0.0 0.0 0.00 0.05 0.00 95 1010.9
20260906072018 21 0 0.0 0.0 0.00 0.05 0.00 95 1010.9
20260906071537 21 0 0.0 0.0 0.00 0.05 0.00 95 1011.0
20260906071020 21 0 0.0 0.0 0.00 0.05 0.00 95 1011.0
20260906070520 21 0 0.0 0.0 0.00 0.05 0.00 95 1011.0
20260906070036 21 0 0.0 0.0 0.00 0.05 0.00 95 1011.0
20260906065524 21 0 0.0 0.0 0.00 0.05 0.00 95 1010.9
20260906065019 21 0 0.0 0.0 0.00 0.05 0.00 95 1010.9
20260906064534 21 0 0.0 0.0 0.00 0.05 0.00 95 1011.0
20260906064023 22 0 0.0 0.0 0.00 0.05 0.00 95 1011.2
20260906063523 22 0 0.0 0.0 0.00 0.05 0.00 95 1011.2
20260906063036 22 0 0.0 0.0 0.00 0.05 0.00 95 1011.2
20260906062520 22 0 0.0 0.0 0.00 0.05 0.00 95 1011.2
20260906062020 22 0 0.0 0.0 0.00 0.05 0.00 95 1011.2
20260906061538 22 0 0.0 0.0 0.00 0.05 0.00 95 1011.2
20260906061018 22 0 0.0 0.0 0.00 0.05 0.00 95 1011.2
20260906060521 22 0 0.0 0.0 0.00 0.05 0.00 95 1011.3
20260906060037 22 0 0.0 0.0 0.00 0.05 0.00 95 1011.4
20260906055517 22 0 0.0 0.0 0.00 0.05 0.00 94 1011.3
20260906055017 22 0 0.0 0.0 0.00 0.05 0.00 94 1011.5
20260906054552 22 0 0.0 1.6 0.00 0.05 0.00 94 1011.6
20260906054021 22 0 0.0 1.6 0.00 0.05 0.00 94 1011.7
20260906053521 22 0 0.0 1.6 0.00 0.05 0.00 94 1011.8
20260906053037 22 0 0.0 0.0 0.00 0.05 0.00 94 1011.7
20260906052520 22 0 0.0 0.0 0.00 0.05 0.00 94 1011.8
20260906052020 22 0 0.0 0.0 0.00 0.05 0.00 94 1011.8
20260906051554 22 0 0.0 0.0 0.00 0.05 0.00 94 1011.9
20260906051020 22 0 0.0 0.0 0.00 0.05 0.00 94 1012.1
20260906050520 22 0 0.0 0.0 0.00 0.05 0.00 94 1012.0
20260906050044 22 0 0.0 0.0 0.00 0.05 0.00 94 1012.0
20260906045518 22 0 0.0 0.0 0.00 0.05 0.00 94 1011.9
20260906045017 22 0 0.0 0.0 0.00 0.05 0.00 94 1011.9
20260906044536 22 0 0.0 0.0 0.00 0.05 0.00 94 1012.1
20260906044021 22 0 0.0 0.0 0.00 0.05 0.00 94 1012.2
20260906043520 22 0 0.0 0.0 0.00 0.05 0.00 94 1012.2
20260906043035 22 0 0.0 0.0 0.00 0.05 0.00 94 1012.1
20260906042520 22 0 0.0 0.0 0.00 0.05 0.00 94 1012.0
20260906042018 22 0 0.0 0.0 0.00 0.05 0.00 94 1012.2
20260906041536 22 0 0.0 0.0 0.00 0.05 0.00 94 1012.2
20260906041023 22 0 0.0 0.0 0.00 0.05 0.00 94 1012.3
20260906040517 22 0 0.0 0.0 0.00 0.05 0.00 94 1012.3
20260906040106 22 0 0.0 0.0 0.00 0.05 0.00 94 1012.2
20260906035519 22 0 0.0 0.0 0.00 0.05 0.05 94 1012.3
20260906035017 22 0 0.0 0.0 0.00 0.05 0.05 94 1012.4
20260906034536 22 0 0.0 0.0 0.00 0.05 0.05 94 1012.3
20260906034018 22 0 0.0 1.6 0.00 0.05 0.05 93 1012.2
20260906033518 22 0 0.0 1.6 0.00 0.05 0.05 93 1012.3
20260906033051 23 0 0.0 0.0 0.00 0.05 0.05 93 1012.3
20260906032523 23 0 0.0 0.0 0.00 0.05 0.05 93 1012.3
20260906032018 23 0 0.0 0.0 0.00 0.05 0.05 93 1012.3
20260906031535 23 0 0.0 0.0 0.00 0.05 0.05 93 1012.4
20260906031018 23 0 0.0 0.0 0.00 0.05 0.05 93 1012.3
20260906030520 23 0 0.0 0.0 0.00 0.05 0.05 93 1012.3
20260906030037 23 0 0.0 1.6 0.00 0.05 0.05 93 1012.3
20260906025516 23 0 0.0 1.6 0.00 0.05 0.05 93 1012.3
20260906025018 23 0 0.0 0.0 0.00 0.05 0.05 93 1012.2
20260906024535 23 0 0.0 0.0 0.00 0.05 0.05 93 1012.2
20260906024024 23 0 0.0 0.0 0.00 0.05 0.05 93 1012.3
20260906023523 23 0 0.0 0.0 0.00 0.05 0.05 93 1012.4
20260906023037 23 0 0.0 0.0 0.00 0.05 0.05 93 1012.4
20260906022520 23 0 0.0 0.0 0.00 0.05 0.05 93 1012.4
20260906022020 23 0 0.0 0.0 0.00 0.05 0.05 93 1012.3
20260906021538 23 0 0.0 0.0 0.00 0.05 0.05 93 1012.3
20260906021020 23 0 0.0 0.0 0.00 0.05 0.05 92 1012.2
20260906020520 23 0 0.0 0.0 0.00 0.05 0.05 93 1012.2
20260906020037 23 0 0.0 0.0 0.00 0.05 0.05 93 1012.2
20260906015519 23 0 0.0 0.0 0.00 0.05 0.05 92 1012.2
20260906015021 23 0 0.0 0.0 0.00 0.05 0.05 92 1012.3
20260906014537 23 0 0.0 0.0 0.00 0.05 0.05 92 1012.2
20260906014020 23 0 0.0 0.0 0.00 0.05 0.05 92 1012.0
20260906013520 23 0 0.0 0.0 0.00 0.05 0.05 92 1011.9
20260906013036 23 0 0.0 0.0 0.00 0.05 0.05 92 1012.1
20260906012520 23 0 0.0 0.0 0.00 0.05 0.05 92 1011.9
20260906012020 23 0 0.0 0.0 0.00 0.05 0.05 92 1012.0
20260906011538 23 0 0.0 0.0 0.00 0.05 0.05 92 1011.8
20260906011019 23 0 0.0 0.0 0.00 0.05 0.05 92 1011.8
20260906010520 23 0 0.0 0.0 0.00 0.05 0.05 92 1011.9
20260906010036 23 0 0.0 0.0 0.00 0.05 0.05 92 1011.9
20260906005520 23 0 0.0 0.0 0.00 0.05 0.05 92 1012.0
20260906005020 23 0 0.0 0.0 0.00 0.05 0.05 92 1011.9
20260906004537 23 0 0.0 0.0 0.00 0.05 0.05 91 1011.8
20260906004024 24 0 0.0 0.0 0.00 0.05 0.05 91 1011.9
20260906003518 24 0 0.0 0.0 0.00 0.05 0.05 91 1011.9
20260906003034 24 0 0.0 0.0 0.00 0.05 0.05 91 1011.9
20260906002520 24 0 0.0 0.0 0.00 0.05 0.05 91 1011.8
20260906002021 24 0 0.0 0.0 0.00 0.05 0.05 91 1011.7
20260906001539 24 0 0.0 0.0 0.00 0.05 0.05 91 1011.8
20260906001018 24 0 0.0 0.0 0.00 0.05 0.05 91 1011.7
20260906000518 24 0 0.0 0.0 0.00 0.05 0.05 91 1011.5
20260906000038 24 0 0.0 0.0 0.00 0.05 0.05 91 1011.3
20260905235520 25 0 0.0 0.0 0.00 0.05 0.05 91 1011.3
20260905235018 25 0 0.0 1.6 0.00 0.05 0.05 91 1011.2
20260905234538 25 0 0.0 1.6 0.00 0.05 0.05 91 1011.2
20260905234018 25 0 0.0 1.6 0.00 0.05 0.05 91 1011.3
20260905233523 25 0 0.0 1.6 0.00 0.05 0.05 91 1011.2
20260905233035 25 0 0.0 1.6 0.00 0.05 0.05 91 1011.1
20260905232518 25 0 0.0 1.6 0.00 0.05 0.05 91 1010.9
20260905232020 25 0 0.0 1.6 0.00 0.05 0.05 91 1010.9
20260905231538 25 0 0.0 1.6 0.00 0.05 0.05 91 1011.0
20260905231021 25 0 0.0 1.6 0.00 0.05 0.05 91 1010.9
20260905230521 25 248 0.0 1.6 0.00 0.05 0.05 91 1010.5
20260905230037 25 0 0.0 1.6 0.00 0.05 0.05 91 1010.3
20260905225520 25 0 0.0 1.6 0.00 0.05 0.05 91 1010.3
20260905225021 25 0 0.0 1.6 0.00 0.05 0.05 90 1010.0
20260905224605 25 0 0.0 1.6 0.00 0.05 0.05 90 1009.9
20260905224018 25 0 0.0 1.6 0.00 0.05 0.05 90 1009.8
20260905223515 25 0 0.0 1.6 0.00 0.05 0.05 89 1009.9
20260905223042 25 0 0.0 1.6 0.00 0.05 0.05 89 1010.2
20260905222521 25 221 0.0 1.6 0.00 0.05 0.05 89 1010.2
20260905222020 25 0 0.0 1.6 0.00 0.05 0.05 88 1010.4
20260905221539 25 0 0.0 1.6 0.00 0.05 0.05 88 1010.6
20260905221021 25 0 0.0 1.6 0.03 0.05 0.05 88 1010.9
20260905220520 25 0 0.0 0.0 0.03 0.05 0.05 87 1010.8
20260905220035 25 0 0.0 0.0 0.03 0.05 0.05 87 1010.9
20260905215517 25 0 0.0 3.2 0.05 0.05 0.05 87 1010.8
20260905215020 25 0 0.0 3.2 0.05 0.05 0.05 87 1010.7
20260905214543 25 0 0.0 3.2 0.05 0.05 0.05 86 1010.8
20260905214018 25 0 0.0 1.6 0.05 0.05 0.05 86 1010.7
20260905213521 25 0 0.0 1.6 0.05 0.05 0.05 85 1010.3
20260905213035 25 0 0.0 0.0 0.05 0.05 0.05 84 1010.1
20260905212526 26 0 0.0 0.0 0.05 0.05 0.05 84 1010.1
20260905212020 26 0 0.0 0.0 0.05 0.05 0.05 83 1010.1
20260905211544 26 0 0.0 0.0 0.05 0.05 0.05 82 1010.3
20260905211020 26 0 0.0 1.6 0.03 0.03 0.03 81 1010.3
20260905210519 26 0 0.0 1.6 0.03 0.03 0.03 80 1010.5
20260905210043 27 0 0.0 1.6 0.03 0.03 0.03 78 1010.5
20260905205520 27 0 0.0 4.8 0.00 0.00 0.00 77 1010.5
20260905205021 27 0 0.0 4.8 0.00 0.00 0.00 75 1010.6
20260905204540 27 0 0.0 4.8 0.00 0.00 0.00 74 1010.3
20260905204020 27 276 0.0 9.7 0.00 0.00 0.00 74 1010.2
20260905203516 27 0 0.0 9.7 0.00 0.00 0.00 73 1010.3
20260905203037 27 0 0.0 11.3 0.00 0.00 0.00 72 1010.4
20260905202518 28 303 1.6 11.3 0.00 0.00 0.00 71 1010.4
20260905202019 28 67 1.6 9.7 0.00 0.00 0.00 70 1010.1
20260905201534 28 76 1.6 14.5 0.00 0.00 0.00 69 1010.3
20260905201020 28 14 1.6 14.5 0.00 0.00 0.00 68 1010.6
20260905200526 28 360 3.2 16.1 0.00 0.00 0.00 68 1010.7
20260905200035 29 38 3.2 17.7 0.00 0.00 0.00 67 1010.2
20260905195521 30 351 3.2 17.7 0.00 0.00 0.00 66 1010.5
20260905195023 30 171 4.8 29.0 0.00 0.00 0.00 63 1010.5
20260905194541 32 28 6.4 29.0 0.00 0.00 0.00 59 1010.5
20260905194019 33 284 4.8 16.1 0.00 0.00 0.00 55 1010.8
20260905193516 35 31 0.0 6.4 0.00 0.00 0.00 51 1010.4
20260905193035 36 210 0.0 3.2 0.00 0.00 0.00 50 1010.0
20260905192521 36 0 0.0 3.2 0.00 0.00 0.00 49 1009.8
20260905192021 36 0 0.0 1.6 0.00 0.00 0.00 48 1009.6
20260905191537 36 0 0.0 3.2 0.00 0.00 0.00 46 1009.7
20260905191018 36 0 0.0 3.2 0.00 0.00 0.00 45 1009.6
20260905190520 37 51 0.0 1.6 0.00 0.00 0.00 45 1009.6
20260905190034 37 355 0.0 4.8 0.00 0.00 0.00 45 1009.7
20260905185518 37 0 1.6 4.8 0.00 0.00 0.00 44 1009.7
20260905185019 37 0 0.0 6.4 0.00 0.00 0.00 45 1009.6
20260905184547 37 125 0.0 6.4 0.00 0.00 0.00 43 1009.7
20260905184016 37 173 1.6 6.4 0.00 0.00 0.00 42 1009.8
20260905183516 37 0 1.6 4.8 0.00 0.00 0.00 44 1009.7
20260905183037 37 169 0.0 4.8 0.00 0.00 0.00 44 1009.9
20260905182520 37 0 0.0 4.8 0.00 0.00 0.00 44 1010.0
20260905182020 37 0 1.6 8.0 0.00 0.00 0.00 44 1010.3
20260905181536 37 0 0.0 8.0 0.00 0.00 0.00 45 1010.3
20260905181017 37 0 1.6 8.0 0.00 0.00 0.00 45 1010.4
20260905180521 37 0 0.0 6.4 0.00 0.00 0.00 46 1010.6
20260905180042 36 296 1.6 6.4 0.00 0.00 0.00 48 1010.8
20260905175520 36 0 0.0 6.4 0.00 0.00 0.00 48 1010.9
20260905175016 36 0 0.0 6.4 0.00 0.00 0.00 49 1011.1
20260905174538 36 274 1.6 6.4 0.00 0.00 0.00 48 1011.2
20260905174016 37 263 1.6 4.8 0.00 0.00 0.00 47 1011.3
20260905173516 37 0 0.0 6.4 0.00 0.00 0.00 48 1011.3
20260905173054 37 330 0.0 11.3 0.00 0.00 0.00 50 1011.3
20260905172518 36 0 1.6 11.3 0.00 0.00 0.00 51 1011.5
20260905172020 36 162 1.6 11.3 0.00 0.00 0.00 51 1011.6
20260905171535 36 0 1.6 6.4 0.00 0.00 0.00 52 1011.7
20260905171020 36 341 0.0 6.4 0.00 0.00 0.00 52 1011.8
20260905170520 36 19 0.0 6.4 0.00 0.00 0.00 53 1011.9
20260905170040 36 184 0.0 6.4 0.00 0.00 0.00 53 1012.0
20260905165519 35 0 0.0 4.8 0.00 0.00 0.00 53 1012.1
20260905165018 35 293 0.0 6.4 0.00 0.00 0.00 54 1012.1
20260905164535 35 0 1.6 6.4 0.00 0.00 0.00 54 1012.1
20260905164017 35 183 1.6 6.4 0.00 0.00 0.00 55 1012.2
20260905163523 35 67 0.0 8.0 0.00 0.00 0.00 55 1012.1
20260905163035 34 0 0.0 8.0 0.00 0.00 0.00 57 1012.2
20260905162518 34 103 0.0 4.8 0.00 0.00 0.00 58 1012.2
20260905162019 34 0 0.0 4.8 0.00 0.00 0.00 58 1012.4
20260905161550 34 277 0.0 6.4 0.00 0.00 0.00 60 1012.3
20260905161020 33 22 1.6 6.4 0.00 0.00 0.00 60 1012.3
20260905160518 33 148 0.0 4.8 0.00 0.00 0.00 59 1012.4
20260905160035 33 0 0.0 8.0 0.00 0.00 0.00 60 1012.5
20260905155522 33 0 1.6 8.0 0.00 0.00 0.00 60 1012.7
20260905155016 33 217 0.0 4.8 0.00 0.00 0.00 61 1012.7
20260905154536 33 136 0.0 3.2 0.00 0.00 0.00 62 1012.8
20260905154022 33 0 0.0 4.8 0.00 0.00 0.00 63 1012.9
20260905153518 33 0 0.0 4.8 0.00 0.00 0.00 62 1012.8
20260905153037 33 323 0.0 6.4 0.00 0.00 0.00 63 1012.9
20260905152522 33 26 0.0 6.4 0.00 0.00 0.00 63 1013.0
20260905152018 33 53 0.0 8.0 0.00 0.00 0.00 63 1012.9
20260905151536 32 146 0.0 8.0 0.00 0.00 0.00 66 1013.0
20260905151018 32 256 0.0 4.8 0.00 0.00 0.00 67 1013.0
20260905150519 32 0 0.0 6.4 0.00 0.00 0.00 66 1013.1
20260905150038 32 0 0.0 6.4 0.00 0.00 0.00 67 1013.0
20260905145520 32 0 0.0 6.4 0.00 0.00 0.00 69 1013.0
20260905145022 32 0 1.6 6.4 0.00 0.00 0.00 68 1013.1
20260905144536 32 0 0.0 3.2 0.00 0.00 0.00 69 1013.1
20260905144020 31 0 0.0 4.8 0.00 0.00 0.00 70 1013.1
20260905143518 31 0 0.0 4.8 0.00 0.00 0.00 71 1013.0
20260905143037 31 210 0.0 3.2 0.00 0.00 0.00 71 1013.1
20260905142520 31 0 0.0 3.2 0.00 0.00 0.00 72 1013.1
20260905142020 31 0 0.0 1.6 0.00 0.00 0.00 73 1013.1
20260905141538 30 0 0.0 3.2 0.00 0.00 0.00 73 1013.0
20260905141024 30 0 0.0 4.8 0.00 0.00 0.00 74 1013.0
20260905140520 30 0 0.0 4.8 0.00 0.00 0.00 75 1013.0
20260905140038 30 243 0.0 4.8 0.00 0.00 0.00 76 1012.9
20260905135519 30 0 0.0 4.8 0.00 0.00 0.00 76 1012.9
20260905135019 29 223 0.0 4.8 0.00 0.00 0.00 77 1012.9
20260905134536 29 0 0.0 4.8 0.00 0.00 0.00 78 1012.8
20260905134020 28 350 0.0 4.8 0.00 0.00 0.00 78 1012.8
20260905133519 28 171 0.0 4.8 0.00 0.00 0.00 79 1012.9
20260905133039 28 165 0.0 3.2 0.00 0.00 0.00 79 1013.0
20260905132517 28 0 0.0 6.4 0.00 0.00 0.00 80 1012.9
20260905132020 28 0 0.0 8.0 0.00 0.00 0.00 81 1013.0
20260905131536 28 0 1.6 8.0 0.00 0.00 0.00 83 1012.9
20260905131021 27 0 0.0 6.4 0.00 0.00 0.00 85 1012.9
20260905130520 27 0 0.0 6.4 0.00 0.00 0.00 88 1012.8
20260905130037 26 156 0.0 1.6 0.00 0.00 0.00 90 1013.1
20260905125521 26 0 0.0 1.6 0.00 0.00 0.00 92 1013.1
20260905125020 25 0 0.0 1.6 0.00 0.00 0.00 93 1013.2
20260905124538 25 0 0.0 1.6 0.00 0.00 0.00 93 1013.2
20260905124017 25 0 0.0 1.6 0.00 0.00 0.00 94 1013.3
20260905123520 24 0 0.0 1.6 0.00 0.00 0.00 94 1013.2